Change the Weather History Date:

Sunday, April 27, 2014

  Actual Average Record
Temperature  
Mean Temperature 52 °F -  
Max Temperature 60 °F 68 °F 88 °F (1981)
Min Temperature 44 °F 41 °F 26 °F (1950)
Degree Days  
Heating Degree Days 13    
Growing Degree Days 2 (Base 50)    
Moisture  
Dew Point 46 °F    
Average Humidity 79    
Maximum Humidity 100    
Minimum Humidity 48    
Precipitation  
Precipitation 0.46 in - - ()
Sea Level Pressure  
Sea Level Pressure 29.50 in    
Wind  
Wind Speed 23 mph (ESE)    
Max Wind Speed 32 mph    
Max Gust Speed 41 mph    
Visibility 10 miles    
Events Rain    
Averages and records for this station are not official NWS values.
T = Trace of Precipitation, MM = Missing Value Source: NWS Daily Summary

Daily Weather History Graph

Daily Weather History Graph

Search for Another Location

Airport or City:

Trip Planner

Search our weather history database for the weather conditions in past years. The results will help you decide how hot, cold, wet, or windy it might be!

Date:

Astronomy

Apr. 27, 2014 Rise Set
Actual Time 6:20 AM CDT 8:13 PM CDT
Civil Twilight 5:50 AM CDT 8:43 PM CDT
Nautical Twilight 5:13 AM CDT 9:20 PM CDT
Astronomical Twilight 4:34 AM CDT 10:00 PM CDT
Moon 5:23 AM CDT (4/27) 6:47 PM CDT (4/27)
Length of Visible Light 14h 53m
Length of Day
13h 53m
Waning Crescent, 3% of the Moon is Illuminated
Apr 27
Waning Crescent
Apr 29
New
May 6
First Quarter
May 14
Full
May 21
Last Quarter

Hourly Weather History & Observations

Time (CDT) Temp. Windchill Dew Point Humidity Pressure Visibility Wind Dir Wind Speed Gust Speed Precip Events Conditions
12:15 AM 60.8 °F - 41.0 °F 48% 29.64 in 10.0 mi East 23.0 mph 34.5 mph N/A   Overcast
12:35 AM 60.8 °F - 41.0 °F 48% 29.63 in 10.0 mi ESE 26.5 mph 33.4 mph N/A   Overcast
12:55 AM 59.0 °F - 42.8 °F 55% 29.64 in 10.0 mi ESE 21.9 mph 32.2 mph N/A   Overcast
1:15 AM 57.2 °F - 42.8 °F 59% 29.63 in 10.0 mi East 27.6 mph 33.4 mph N/A   Overcast
1:35 AM 55.4 °F - 42.8 °F 63% 29.63 in 10.0 mi ESE 27.6 mph 36.8 mph N/A   Overcast
1:55 AM 53.6 °F - 41.0 °F 62% 29.64 in 10.0 mi ESE 26.5 mph 34.5 mph N/A   Overcast
2:15 AM 53.6 °F - 41.0 °F 62% 29.64 in 10.0 mi ESE 24.2 mph 36.8 mph N/A   Overcast
2:35 AM 51.8 °F - 39.2 °F 62% 29.63 in 10.0 mi ESE 25.3 mph 33.4 mph N/A   Overcast
2:55 AM 51.8 °F - 39.2 °F 62% 29.62 in 10.0 mi ESE 23.0 mph 31.1 mph N/A   Overcast
3:15 AM 50.0 °F - 37.4 °F 62% 29.63 in 10.0 mi ESE 27.6 mph 33.4 mph N/A   Overcast
3:35 AM 50.0 °F - 37.4 °F 62% 29.63 in 10.0 mi ESE 20.7 mph 28.8 mph N/A   Overcast
3:55 AM 48.2 °F - 37.4 °F 66% 29.60 in 10.0 mi ESE 24.2 mph 31.1 mph N/A   Overcast
4:15 AM 48.2 °F - 35.6 °F 62% 29.60 in 10.0 mi ESE 25.3 mph 34.5 mph N/A   Overcast
4:35 AM 46.4 °F 37.2 °F 37.4 °F 71% 29.59 in 10.0 mi ESE 29.9 mph - N/A   Overcast
4:55 AM 46.4 °F 37.4 °F 35.6 °F 66% 29.58 in 10.0 mi ESE 28.8 mph 35.7 mph N/A   Overcast
5:15 AM 46.4 °F 38.1 °F 35.6 °F 66% 29.58 in 10.0 mi ESE 24.2 mph 32.2 mph N/A   Overcast
5:35 AM 46.4 °F 38.1 °F 35.6 °F 66% 29.58 in 10.0 mi ESE 24.2 mph 33.4 mph N/A   Overcast
5:55 AM 46.4 °F 37.7 °F 35.6 °F 66% 29.57 in 10.0 mi ESE 26.5 mph 32.2 mph N/A   Overcast
6:15 AM 46.4 °F 37.7 °F 35.6 °F 66% 29.57 in 10.0 mi ESE 26.5 mph 33.4 mph N/A   Overcast
6:35 AM 44.6 °F 35.3 °F 35.6 °F 71% 29.55 in 10.0 mi ESE 26.5 mph 38.0 mph N/A   Overcast
6:55 AM 46.4 °F 37.4 °F 35.6 °F 66% 29.56 in 10.0 mi ESE 28.8 mph 35.7 mph N/A   Overcast
7:15 AM 46.4 °F 37.5 °F 35.6 °F 66% 29.55 in 10.0 mi ESE 27.6 mph 34.5 mph N/A   Overcast
7:35 AM 46.4 °F 37.0 °F 37.4 °F 71% 29.56 in 10.0 mi SE 31.1 mph 38.0 mph N/A   Overcast
7:55 AM 46.4 °F 38.1 °F 37.4 °F 71% 29.56 in 10.0 mi SE 24.2 mph 34.5 mph N/A   Overcast
8:15 AM 48.2 °F - 37.4 °F 66% 29.54 in 10.0 mi ESE 24.2 mph 29.9 mph N/A   Overcast
8:35 AM 48.2 °F - 37.4 °F 66% 29.53 in 10.0 mi SE 26.5 mph 34.5 mph N/A   Overcast
9:15 AM 48.2 °F - 39.2 °F 71% 29.51 in 10.0 mi ESE 21.9 mph 29.9 mph N/A   Mostly Cloudy
9:35 AM 46.4 °F 38.1 °F 41.0 °F 81% 29.54 in 10.0 mi ESE 24.2 mph 31.1 mph N/A   Partly Cloudy
9:55 AM 46.4 °F 38.5 °F 41.0 °F 81% 29.55 in 10.0 mi ESE 21.9 mph 28.8 mph N/A   Mostly Cloudy
10:15 AM 48.2 °F - 41.0 °F 76% 29.55 in 10.0 mi ESE 18.4 mph 27.6 mph N/A   Overcast
10:35 AM 50.0 °F - 42.8 °F 76% 29.54 in 10.0 mi ESE 21.9 mph 27.6 mph N/A   Overcast
10:55 AM 50.0 °F - 42.8 °F 76% 29.54 in 10.0 mi ESE 19.6 mph 27.6 mph N/A   Overcast
11:15 AM 51.8 °F - 42.8 °F 71% 29.52 in 10.0 mi ESE 16.1 mph 21.9 mph N/A   Overcast
11:35 AM 51.8 °F - 42.8 °F 71% 29.52 in 10.0 mi ESE 18.4 mph 28.8 mph N/A   Overcast
11:55 AM 51.8 °F - 44.6 °F 76% 29.51 in 10.0 mi ESE 21.9 mph 27.6 mph N/A   Overcast
12:35 PM 55.4 °F - 46.4 °F 72% 29.49 in 10.0 mi ESE 18.4 mph - N/A   Scattered Clouds
12:55 PM 55.4 °F - 48.2 °F 77% 29.46 in 8.0 mi ESE 17.3 mph - N/A   Mostly Cloudy
1:15 PM 57.2 °F - 48.2 °F 72% 29.53 in 10.0 mi SSE 12.7 mph 20.7 mph N/A   Overcast
1:35 PM 53.6 °F - 50.0 °F 88% 29.55 in 0.5 mi SE 9.2 mph 20.7 mph N/A Rain Heavy Rain
1:55 PM 51.8 °F - 51.8 °F 100% 29.50 in 3.0 mi East 10.4 mph 16.1 mph 0.40 in Rain Light Rain
2:15 PM 53.6 °F - 51.8 °F 94% 29.49 in 4.0 mi East 16.1 mph - N/A Rain Light Rain
2:35 PM 53.6 °F - 51.8 °F 94% 29.45 in 8.0 mi ENE 16.1 mph - N/A   Scattered Clouds
2:55 PM 53.6 °F - 51.8 °F 94% 29.47 in 10.0 mi East 12.7 mph 19.6 mph 0.05 in   Scattered Clouds
3:15 PM 53.6 °F - 51.8 °F 94% 29.45 in 5.0 mi East 16.1 mph - N/A   Partly Cloudy
3:35 PM 55.4 °F - 53.6 °F 94% 29.42 in 9.0 mi East 23.0 mph 28.8 mph N/A   Clear
3:55 PM 55.4 °F - 53.6 °F 94% 29.40 in 7.0 mi East 23.0 mph 28.8 mph 0.01 in   Clear
4:15 PM 55.4 °F - 53.6 °F 94% 29.28 in 8.0 mi East 32.2 mph 41.4 mph N/A   Partly Cloudy
4:35 PM 55.4 °F - 53.6 °F 94% 29.31 in 10.0 mi East 29.9 mph 40.3 mph N/A   Clear
5:15 PM 57.2 °F - 53.6 °F 88% 29.36 in 10.0 mi East 20.7 mph 29.9 mph N/A   Clear
5:35 PM 57.2 °F - 53.6 °F 88% 29.38 in 10.0 mi ESE 21.9 mph 28.8 mph N/A   Clear
5:55 PM 57.2 °F - 55.4 °F 94% 29.39 in 10.0 mi ESE 19.6 mph 26.5 mph N/A   Partly Cloudy
6:15 PM 57.2 °F - 55.4 °F 94% 29.40 in 10.0 mi ESE 15.0 mph - N/A   Partly Cloudy
6:35 PM 57.2 °F - 55.4 °F 94% 29.41 in 10.0 mi ESE 18.4 mph 25.3 mph N/A   Partly Cloudy
6:55 PM 57.2 °F - 53.6 °F 88% 29.41 in 10.0 mi ESE 18.4 mph 32.2 mph N/A   Partly Cloudy
7:15 PM 57.2 °F - 53.6 °F 88% 29.41 in 10.0 mi ESE 21.9 mph 29.9 mph N/A   Mostly Cloudy
7:35 PM 57.2 °F - 53.6 °F 88% 29.41 in 10.0 mi ESE 21.9 mph - N/A   Mostly Cloudy
7:55 PM 57.2 °F - 53.6 °F 88% 29.42 in 10.0 mi ESE 21.9 mph 33.4 mph N/A   Mostly Cloudy
8:15 PM 57.2 °F - 55.4 °F 94% 29.43 in 10.0 mi SE 18.4 mph 27.6 mph N/A   Overcast
8:35 PM 59.0 °F - 55.4 °F 88% 29.43 in 10.0 mi SE 24.2 mph - N/A   Overcast
8:55 PM 59.0 °F - 55.4 °F 88% 29.43 in 10.0 mi ESE 26.5 mph 39.1 mph N/A   Overcast
9:15 PM 57.2 °F - 55.4 °F 94% 29.43 in 10.0 mi ESE 26.5 mph 33.4 mph N/A   Overcast
9:35 PM 57.2 °F - 55.4 °F 94% 29.44 in 10.0 mi ESE 26.5 mph 35.7 mph N/A   Overcast
9:55 PM 57.2 °F - 55.4 °F 94% 29.43 in 10.0 mi ESE 23.0 mph 32.2 mph N/A   Overcast
10:15 PM 57.2 °F - 55.4 °F 94% 29.43 in 10.0 mi ESE 23.0 mph - N/A   Overcast
10:35 PM 57.2 °F - 55.4 °F 94% 29.43 in 10.0 mi ESE 21.9 mph 31.1 mph N/A   Overcast
10:55 PM 57.2 °F - 55.4 °F 94% 29.42 in 10.0 mi ESE 20.7 mph 28.8 mph N/A   Overcast
11:15 PM 57.2 °F - 55.4 °F 94% 29.42 in 10.0 mi ESE 20.7 mph 29.9 mph N/A   Overcast
11:35 PM 57.2 °F - 55.4 °F 94% 29.42 in 10.0 mi ESE 20.7 mph 26.5 mph N/A   Overcast
11:55 PM 57.2 °F - 55.4 °F 94% 29.41 in 10.0 mi ESE 17.3 mph 25.3 mph N/A   Overcast